Time,TemperatureF,DewpointF,PressureIn,WindDirection,WindDirectionDegrees,WindSpeedMPH,WindSpeedGustMPH,Humidity,HourlyPrecipIn,Conditions,Clouds,dailyrainin,SoftwareType,DateUTC
2013-07-26 00:02:00,87.0,50.0,29.99,WNW,300,16.0,30.0,28,0.00,,,0.00,,2013-07-26 04:02:00,
2013-07-26 00:11:00,87.0,50.0,29.99,WNW,300,16.0,30.0,28,0.00,,,0.00,,2013-07-26 04:11:00,
2013-07-26 00:22:00,87.0,50.0,30.01,WNW,300,21.0,31.0,28,0.00,,,0.00,,2013-07-26 04:22:00,
2013-07-26 00:32:00,87.0,50.0,30.01,WNW,300,21.0,31.0,28,0.00,,,0.00,,2013-07-26 04:32:00,
2013-07-26 00:42:00,86.0,50.0,30.01,WNW,299,18.0,31.0,29,0.00,,,0.00,,2013-07-26 04:42:00,
2013-07-26 00:53:00,86.0,50.0,30.01,WNW,297,22.0,33.0,29,0.00,,,0.00,,2013-07-26 04:53:00,
2013-07-26 01:02:00,86.0,50.0,30.01,WNW,297,22.0,33.0,29,0.00,,,0.00,,2013-07-26 05:02:00,
2013-07-26 01:22:00,86.0,50.0,30.02,WNW,301,15.0,30.0,29,0.00,,,0.00,,2013-07-26 05:22:00,
2013-07-26 01:32:00,86.0,50.0,30.02,WNW,298,21.0,29.0,29,0.00,,,0.00,,2013-07-26 05:32:00,
2013-07-26 01:43:00,86.0,50.0,30.02,WNW,298,21.0,29.0,29,0.00,,,0.00,,2013-07-26 05:43:00,
2013-07-26 01:52:00,86.0,50.0,30.02,WNW,298,21.0,29.0,29,0.00,,,0.00,,2013-07-26 05:52:00,
2013-07-26 02:02:00,86.0,49.0,30.02,WNW,299,11.0,29.0,28,0.00,,,0.00,,2013-07-26 06:02:00,
2013-07-26 02:11:00,86.0,49.0,30.02,WNW,299,11.0,29.0,28,0.00,,,0.00,,2013-07-26 06:11:00,
2013-07-26 02:22:00,85.0,49.0,30.02,WNW,300,20.0,29.0,29,0.00,,,0.00,,2013-07-26 06:22:00,
2013-07-26 02:33:00,86.0,49.0,30.02,WNW,300,20.0,32.0,28,0.00,,,0.00,,2013-07-26 06:33:00,
2013-07-26 02:43:00,85.0,49.0,30.03,WNW,297,15.0,32.0,29,0.00,,,0.00,,2013-07-26 06:43:00,
2013-07-26 02:52:00,85.0,49.0,30.03,WNW,297,15.0,32.0,29,0.00,,,0.00,,2013-07-26 06:52:00,
2013-07-26 03:01:00,86.0,49.0,30.03,WNW,292,15.0,33.0,28,0.00,,,0.00,,2013-07-26 07:01:00,
2013-07-26 03:12:00,86.0,49.0,30.03,WNW,292,15.0,33.0,28,0.00,,,0.00,,2013-07-26 07:12:00,
2013-07-26 03:22:00,86.0,49.0,30.03,WNW,292,15.0,33.0,28,0.00,,,0.00,,2013-07-26 07:22:00,
2013-07-26 03:32:00,85.0,49.0,30.03,WNW,298,13.0,26.0,29,0.00,,,0.00,,2013-07-26 07:32:00,
2013-07-26 03:43:00,85.0,49.0,30.03,WNW,300,20.0,31.0,29,0.00,,,0.00,,2013-07-26 07:43:00,
2013-07-26 03:53:00,85.0,49.0,30.03,WNW,300,20.0,31.0,29,0.00,,,0.00,,2013-07-26 07:53:00,
2013-07-26 04:02:00,85.0,50.0,30.03,WNW,298,20.0,33.0,30,0.00,,,0.00,,2013-07-26 08:02:00,
2013-07-26 04:12:00,85.0,50.0,30.03,WNW,298,20.0,33.0,30,0.00,,,0.00,,2013-07-26 08:12:00,
2013-07-26 04:22:00,83.0,52.0,30.03,WNW,296,18.0,33.0,35,0.00,,,0.00,,2013-07-26 08:22:00,
2013-07-26 04:32:00,84.0,51.0,30.03,WNW,300,14.0,24.0,32,0.00,,,0.00,,2013-07-26 08:32:00,
2013-07-26 04:44:00,84.0,50.0,30.02,WNW,303,19.0,32.0,31,0.00,,,0.00,,2013-07-26 08:44:00,
2013-07-26 04:52:00,84.0,50.0,30.03,NW,305,16.0,29.0,31,0.00,,,0.00,,2013-07-26 08:52:00,
2013-07-26 05:02:00,84.0,52.0,30.03,NW,306,11.0,25.0,33,0.00,,,0.00,,2013-07-26 09:02:00,
2013-07-26 05:12:00,84.0,51.0,30.03,WNW,299,18.0,33.0,32,0.00,,,0.00,,2013-07-26 09:12:00,
2013-07-26 05:32:00,84.0,52.0,30.04,NW,304,12.0,25.0,33,0.00,,,0.00,,2013-07-26 09:32:00,
2013-07-26 05:43:00,83.0,51.0,30.05,NW,305,11.0,20.0,33,0.00,,,0.00,,2013-07-26 09:43:00,
2013-07-26 05:52:00,83.0,51.0,30.05,NW,305,11.0,20.0,33,0.00,,,0.00,,2013-07-26 09:52:00,
2013-07-26 06:02:00,80.0,55.0,30.06,NW,304,12.0,22.0,42,0.02,,,0.02,,2013-07-26 10:02:00,
2013-07-26 06:11:00,80.0,55.0,30.06,NW,304,12.0,22.0,42,0.02,,,0.02,,2013-07-26 10:11:00,
2013-07-26 06:22:00,80.0,56.0,30.05,NNW,331,6.0,20.0,44,0.02,,,0.02,,2013-07-26 10:22:00,
2013-07-26 06:32:00,80.0,55.0,30.05,NW,307,6.0,18.0,43,0.02,,,0.02,,2013-07-26 10:32:00,
2013-07-26 06:42:00,80.0,53.0,30.05,WNW,303,6.0,17.0,40,0.02,,,0.02,,2013-07-26 10:42:00,
2013-07-26 06:52:00,80.0,53.0,30.05,WNW,303,6.0,17.0,40,0.02,,,0.02,,2013-07-26 10:52:00,
2013-07-26 07:02:00,81.0,53.0,30.03,NW,305,12.0,21.0,38,0.00,,,0.02,,2013-07-26 11:02:00,
2013-07-26 07:32:00,82.0,54.0,30.03,WNW,298,14.0,22.0,38,0.00,,,0.02,,2013-07-26 11:32:00,
2013-07-26 07:43:00,81.0,55.0,30.03,WNW,299,13.0,23.0,41,0.00,,,0.02,,2013-07-26 11:43:00,
2013-07-26 07:52:00,81.0,56.0,30.03,NW,306,11.0,22.0,42,0.00,,,0.02,,2013-07-26 11:52:00,
2013-07-26 08:01:00,81.0,56.0,30.03,WNW,301,17.0,31.0,42,0.00,,,0.02,,2013-07-26 12:01:00,
2013-07-26 08:12:00,81.0,56.0,30.03,WNW,301,17.0,31.0,42,0.00,,,0.02,,2013-07-26 12:12:00,
2013-07-26 08:33:00,81.0,55.0,30.04,NW,305,11.0,24.0,41,0.00,,,0.02,,2013-07-26 12:33:00,
2013-07-26 08:43:00,81.0,55.0,30.04,NW,305,11.0,24.0,41,0.00,,,0.02,,2013-07-26 12:43:00,
2013-07-26 08:53:00,81.0,55.0,30.03,NW,320,16.0,33.0,41,0.00,,,0.02,,2013-07-26 12:53:00,
2013-07-26 09:32:00,81.0,54.0,30.05,WNW,302,12.0,26.0,40,0.00,,,0.02,,2013-07-26 13:32:00,
2013-07-26 09:43:00,82.0,55.0,30.06,NW,309,10.0,22.0,40,0.00,,,0.02,,2013-07-26 13:43:00,
2013-07-26 10:02:00,81.0,55.0,30.06,WNW,298,18.0,27.0,41,0.00,,,0.02,,2013-07-26 14:02:00,
2013-07-26 10:11:00,81.0,55.0,30.07,WNW,301,10.0,22.0,41,0.00,,,0.02,,2013-07-26 14:11:00,
2013-07-26 10:22:00,81.0,54.0,30.07,NW,315,6.0,22.0,39,0.00,,,0.02,,2013-07-26 14:22:00,
2013-07-26 10:32:00,82.0,55.0,30.07,WNW,298,5.0,19.0,39,0.00,,,0.02,,2013-07-26 14:32:00,
2013-07-26 10:43:00,83.0,54.0,30.09,ENE,73,2.0,7.0,37,0.00,,,0.02,,2013-07-26 14:43:00,
2013-07-26 10:53:00,83.0,54.0,30.09,ENE,73,2.0,7.0,37,0.00,,,0.02,,2013-07-26 14:53:00,
2013-07-26 11:02:00,83.0,54.0,30.09,ENE,73,2.0,7.0,37,0.00,,,0.02,,2013-07-26 15:02:00,
2013-07-26 11:32:00,85.0,55.0,30.09,NW,309,4.0,12.0,36,0.00,,,0.02,,2013-07-26 15:32:00,
2013-07-26 11:43:00,85.0,54.0,30.11,North,0,0.0,5.0,35,0.00,,,0.02,,2013-07-26 15:43:00,
2013-07-26 11:53:00,85.0,54.0,30.11,North,0,0.0,5.0,35,0.00,,,0.02,,2013-07-26 15:53:00,
2013-07-26 12:02:00,85.0,54.0,30.10,North,0,0.0,0.0,35,0.00,,,0.02,,2013-07-26 16:02:00,
2013-07-26 12:14:00,85.0,55.0,30.11,North,0,0.0,7.0,36,0.00,,,0.02,,2013-07-26 16:14:00,
2013-07-26 12:22:00,86.0,56.0,30.11,North,0,0.0,6.0,36,0.00,,,0.02,,2013-07-26 16:22:00,
2013-07-26 12:32:00,86.0,56.0,30.11,North,0,0.0,6.0,36,0.00,,,0.02,,2013-07-26 16:32:00,
2013-07-26 12:43:00,86.0,56.0,30.14,WNW,301,8.0,16.0,36,0.00,,,0.02,,2013-07-26 16:43:00,
2013-07-26 13:33:00,88.0,56.0,30.13,WNW,298,9.0,14.0,34,0.00,,,0.02,,2013-07-26 17:33:00,
2013-07-26 13:43:00,88.0,56.0,30.13,WNW,296,7.0,15.0,34,0.00,,,0.02,,2013-07-26 17:43:00,
2013-07-26 13:52:00,88.0,56.0,30.13,WNW,296,7.0,15.0,34,0.00,,,0.02,,2013-07-26 17:52:00,
2013-07-26 14:02:00,88.0,55.0,30.14,WNW,287,4.0,12.0,33,0.00,,,0.02,,2013-07-26 18:02:00,
2013-07-26 14:32:00,89.0,55.0,30.14,South,181,2.0,5.0,32,0.00,,,0.02,,2013-07-26 18:32:00,
2013-07-26 14:52:00,89.0,56.0,30.12,SE,125,1.0,3.0,33,0.00,,,0.02,,2013-07-26 18:52:00,
2013-07-26 15:02:00,89.0,56.0,30.12,WSW,246,4.0,11.0,33,0.00,,,0.02,,2013-07-26 19:02:00,
2013-07-26 15:11:00,89.0,56.0,30.12,WSW,246,4.0,11.0,33,0.00,,,0.02,,2013-07-26 19:11:00,
2013-07-26 15:22:00,89.0,57.0,30.12,West,269,8.0,14.0,34,0.00,,,0.02,,2013-07-26 19:22:00,
2013-07-26 15:32:00,88.0,57.0,30.12,West,277,5.0,14.0,35,0.00,,,0.02,,2013-07-26 19:32:00,
2013-07-26 15:43:00,88.0,56.0,30.12,WSW,245,7.0,14.0,34,0.00,,,0.02,,2013-07-26 19:43:00,
2013-07-26 15:52:00,88.0,56.0,30.12,WSW,245,7.0,14.0,34,0.00,,,0.02,,2013-07-26 19:52:00,
2013-07-26 16:02:00,88.0,56.0,30.12,WSW,251,4.0,13.0,34,0.00,,,0.02,,2013-07-26 20:02:00,
2013-07-26 16:32:00,88.0,56.0,30.10,SW,221,7.0,12.0,34,0.00,,,0.02,,2013-07-26 20:32:00,
2013-07-26 18:32:00,83.0,63.0,30.10,WNW,291,4.0,11.0,51,0.00,,,0.02,,2013-07-26 22:32:00,
2013-07-26 19:52:00,82.0,63.0,30.08,NW,305,4.0,11.0,53,0.01,,,0.04,,2013-07-26 23:52:00,
2013-07-26 20:02:00,82.0,63.0,30.08,NW,305,4.0,11.0,53,0.01,,,0.04,,2013-07-27 00:02:00,
2013-07-26 20:32:00,84.0,61.0,30.08,WNW,300,7.0,12.0,46,0.00,,,0.04,,2013-07-27 00:32:00,
2013-07-26 20:42:00,84.0,61.0,30.08,WNW,300,7.0,12.0,46,0.00,,,0.04,,2013-07-27 00:42:00,
2013-07-26 20:53:00,84.0,61.0,30.08,NW,311,2.0,10.0,46,0.00,,,0.04,,2013-07-27 00:53:00,
2013-07-26 21:02:00,84.0,61.0,30.08,NW,317,2.0,7.0,46,0.00,,,0.04,,2013-07-27 01:02:00,
2013-07-26 21:11:00,84.0,61.0,30.08,North,0,0.0,6.0,46,0.00,,,0.04,,2013-07-27 01:11:00,
2013-07-26 21:32:00,83.0,61.0,30.08,North,0,0.0,5.0,47,0.00,,,0.04,,2013-07-27 01:32:00,
2013-07-26 21:43:00,83.0,60.0,30.08,WNW,292,1.0,5.0,46,0.00,,,0.04,,2013-07-27 01:43:00,
2013-07-26 22:02:00,83.0,61.0,30.08,North,0,0.0,3.0,47,0.00,,,0.04,,2013-07-27 02:02:00,
2013-07-26 22:32:00,84.0,60.0,30.08,North,0,0.0,3.0,44,0.00,,,0.04,,2013-07-27 02:32:00,
2013-07-26 22:52:00,85.0,62.0,30.07,North,0,0.0,3.0,46,0.00,,,0.04,,2013-07-27 02:52:00,
2013-07-26 23:02:00,84.0,62.0,30.07,NW,309,3.0,4.0,47,0.00,,,0.04,,2013-07-27 03:02:00,
2013-07-26 23:11:00,84.0,62.0,30.07,NW,309,3.0,4.0,47,0.00,,,0.04,,2013-07-27 03:11:00,
2013-07-26 23:22:00,83.0,62.0,30.07,NW,304,3.0,5.0,49,0.00,,,0.04,,2013-07-27 03:22:00,
2013-07-26 23:32:00,83.0,62.0,30.07,NW,304,3.0,5.0,49,0.00,,,0.04,,2013-07-27 03:32:00,
2013-07-26 23:43:00,81.0,61.0,30.06,WNW,302,2.0,6.0,51,0.00,,,0.04,,2013-07-27 03:43:00,
2013-07-26 23:52:00,81.0,61.0,30.06,WNW,302,2.0,6.0,51,0.00,,,0.04,,2013-07-27 03:52:00,